Regional Weather Roundup
Issued by NWS Green Bay, WI

Home | Current Version | Previous Version | Text Only | Print | Product List | Glossary On
Versions: 1 2 3 4 5 6 7 8 9 10 11 12 13 14 15 16 17 18 19 20 21 22 23 24 25 26 27 28 29 30 31 32 33 34 35 36 37 38 39 40 41 42 43 44 45 46 47 48 49 50
000
ASUS43 KGRB 160759
RWRGRB

NORTH-CENTRAL AND NORTHEAST WISCONSIN REGIONAL WEATHER ROUNDUP
NATIONAL WEATHER SERVICE GREEN BAY WI
300 AM CDT TUE SEP 16 2014

WIZ005-009-010>012-018-019-160900-
NORTH CENTRAL WISCONSIN

CITY           SKY/WX    TMP DP  RH WIND       PRES   REMARKS
IRONWOOD       CLEAR     39  36  87 SW7       30.11F
MANITOWISH WTR NOT AVBL
ARBOR VITAE    NOT AVBL
EAGLE RIVER    NOT AVBL
LAND O LAKES   NOT AVBL
RHINELANDER    CLEAR     34  32  92 W6        30.16F
PHILLIPS       NOT AVBL
ANTIGO         NOT AVBL
TOMAHAWK       NOT AVBL
MERRILL        NOT AVBL
$$

WIZ013-073-160900-
NORTHEAST WISCONSIN

CITY           SKY/WX    TMP DP  RH WIND       PRES   REMARKS
IRON MOUNTAIN  CLEAR     38  34  85 CALM      30.13S
MARINETTE      CLEAR     41  37  87 CALM      30.15S
$$

WIZ017-030-035>037-045-160900-
CENTRAL WISCONSIN

CITY           SKY/WX    TMP DP  RH WIND       PRES   REMARKS
MEDFORD        NOT AVBL
WAUSAU         CLEAR     40  38  93 NW3       30.17S
MOSINEE        NOT AVBL
MARSHFIELD     CLEAR     38  36  92 W3        30.19S
WISC RAPIDS    CLEAR     37  36  96 CALM      30.21S
STEVENS POINT  NOT AVBL
WAUPACA        NOT AVBL
SHAWANO        NOT AVBL
CLINTONVILLE   NOT AVBL
$$

WIZ038-039-048-051-160900-
FOX VALLEY

CITY           SKY/WX    TMP DP  RH WIND       PRES   REMARKS
NWS GREEN BAY  CLEAR     40  39  97 W3        30.18S
APPLETON       NOT AVBL
OSHKOSH        CLEAR     44  41  89 W6        30.19R
FOND DU LAC    CLEAR     44  40  85 W6        30.19S
$$

WIZ022-050-052-160900-
EAST CENTRAL WISCONSIN

CITY           SKY/WX    TMP DP  RH WIND       PRES   REMARKS
STURGEON BAY   CLEAR     45  39  81 CALM      30.16S
MANITOWOC      NOT AVBL
SHEBOYGAN      CLEAR     45  41  86 NW3       30.18R
$$

LMZ563-521-522-541>543-160900-
LAKESHORE

STATION/POSITION TIME  TEMP    WIND        PRES    VSBY  WAVE
                       AIR SEA DIR/SP/G                  HT/PER
                 (UTC) (F)     (DEG/KT/KT) (MB)    (MI)  (FT/S)
SHEBOYGAN LKSHOR 0700   50 49  330/  7/ 10 1022.0R
KEWAUNEE LKSHORE 0700   45     300/  5/  5 1020.4
NORTHPORT PIER   0700   54     310/  9/ 11 1020.3S
N MID LAKE BUOY  0700   54 58  320/  8/ 10 1020.4R         1/ 3
S GREEN BAY BUOY 0700   52     VRB 10/ 14  1022.2R
CHAMBERS ISLAND  0700   51     280/  4/  5 1021.0R
MENOMINEE LKSHOR 0700   47     260/  5/  8 1021.6
$$


USA.gov is the U.S. government's official web portal to all federal, state and local government web resources and services.